Wind_Speed
110 110 111 111 112 113 114 115 116 116 117 118 118 119 120 120 121 122 123 123 124 125 125 126 127 127 128 129 130 131 132 132 133 133 133 134 134 134 135 135 136 137 138 138 139 139 140 140 140 140 140 141 141 141 142 142 142 142 142 141 141 140 140 139 139 139 139 138 138 138 138 137 137 137 136 136 136 136 135 135 134 134 133 133 132 132
108 109 109 110 110 112 113 113 114 115 116 116 117 117 118 119 119 120 121 122 122 123 124 124 125 126 127 127 128 129 130 131 132 132 132 132 132 132 133 133 133 134 135 135 136 137 138 138 138 139 139 139 140 140 141 141 141 142 142 142 142 141 141 140 140 140 139 139 139 139 139 139 139 138 138 138 138 138 137 137 137 136 136 135 135 134
107 108 108 108 109 110 111 112 113 113 114 115 115 116 116 117 118 119 119 120 121 122 122 123 124 124 125 126 127 128 129 130 131 131 132 132 132 132 132 132 132 132 133 133 134 135 135 136 137 137 138 138 139 139 139 140 140 141 141 141 142 141 141 141 141 141 140 140 140 140 140 140 140 140 140 140 139 139 139 139 139 139 138 138 137 137
106 107 107 107 108 108 109 110 111 112 112 113 113 114 114 115 115 116 117 117 118 119 120 121 121 122 123 124 125 126 127 129 129 130 131 131 131 132 132 132 132 132 133 133 133 133 134 135 135 136 136 137 138 138 138 139 139 140 140 141 141 141 141 141 141 141 141 141 141 141 141 141 141 141 141 141 141 141 141 141 141 141 141 140 140 139
105 106 106 106 106 107 107 108 109 109 110 110 110 111 111 111 112 112 113 114 115 116 117 118 118 119 120 121 122 124 125 126 127 128 129 130 130 131 131 132 132 132 133 133 133 134 134 134 134 135 136 136 136 137 138 138 139 139 140 140 140 141 141 141 141 142 142 142 142 142 142 142 142 142 142 142 142 142 143 143 143 143 143 143 142 142
104 104 104 105 105 105 105 105 106 106 107 107 107 107 107 107 108 109 109 110 111 112 113 114 115 115 116 118 119 120 121 123 124 125 126 127 128 128 129 130 131 131 132 132 133 133 133 134 134 134 135 135 136 136 137 137 138 138 139 139 140 140 140 141 141 142 142 142 142 142 142 142 142 143 143 143 143 144 144 144 144 144 145 144 144 144
102 102 103 103 103 102 102 103 103 104 104 104 103 103 103 104 104 105 105 106 107 108 109 110 110 111 112 114 115 116 118 119 120 121 122 123 124 125 126 127 128 129 130 131 131 132 133 133 134 134 134 135 135 136 136 137 137 138 139 139 139 140 140 141 141 142 142 142 142 142 142 142 143 143 143 143 144 144 145 145 145 146 146 146 146 146
101 101 101 101 101 100 100 100 101 101 102 101 101 100 100 101 101 102 102 103 103 104 105 106 107 108 109 110 111 112 114 115 116 117 118 120 121 122 123 124 125 126 127 128 129 130 131 131 132 133 133 134 135 135 136 137 137 138 138 139 139 140 140 141 141 142 142 142 143 143 143 143 143 143 143 143 144 144 145 146 146 147 147 148 148 148
100 100 99 99 99 99 99 98 99 99 99 99 99 98 98 98 99 99 99 100 100 101 102 103 103 104 105 107 108 109 110 112 113 114 115 116 117 118 120 121 122 123 124 125 126 127 128 129 129 130 131 132 133 134 135 136 137 138 138 139 139 140 140 141 141 141 142 142 143 143 143 143 143 143 143 143 144 144 145 146 146 147 148 149 149 149
99 98 98 97 97 97 97 97 97 97 97 97 97 96 96 96 96 97 97 97 98 99 99 100 100 101 102 104 105 107 108 109 110 111 112 113 114 116 117 118 118 119 120 122 123 124 125 126 127 128 129 130 131 133 134 135 136 137 138 139 140 140 141 141 141 142 142 142 143 143 143 143 143 143 143 143 143 144 144 145 146 147 148 149 150 150
98 97 96 95 95 95 95 95 95 95 95 95 95 94 94 94 94 94 94 94 95 96 97 98 98 98 99 101 103 104 106 107 108 108 109 111 112 113 114 115 116 117 118 118 120 120 121 123 124 125 126 127 128 130 131 133 135 136 137 138 139 140 141 141 141 142 142 142 143 143 143 143 143 143 143 143 143 143 144 144 145 146 147 149 150 151
97 96 95 94 94 93 93 93 93 93 93 93 93 92 92 92 92 92 92 92 92 93 94 95 95 96 97 98 100 102 103 104 105 106 107 108 109 110 111 112 113 114 115 116 117 118 118 120 121 122 123 124 126 127 128 130 132 134 136 137 139 140 141 141 142 142 142 143 143 143 143 143 143 143 143 143 143 143 143 144 145 146 147 148 149 150
95 94 93 93 92 92 92 91 91 91 90 91 91 90 90 89 89 89 89 89 89 90 91 92 92 93 94 96 98 99 101 102 103 103 104 105 106 107 109 110 111 112 112 113 114 115 116 117 118 119 120 122 123 124 125 127 129 131 133 135 137 138 140 141 142 142 143 143 143 143 143 143 143 143 142 142 142 142 142 143 144 144 146 147 148 149
94 93 92 91 90 90 90 90 89 89 88 88 88 88 87 87 86 86 86 86 86 87 88 88 89 89 91 93 95 97 98 99 99 100 101 102 103 105 106 107 108 109 110 110 111 112 113 114 115 116 117 119 120 121 122 124 125 127 129 132 134 136 138 139 141 142 143 143 144 144 143 143 143 142 142 142 142 142 142 142 142 143 144 146 147 148
91 90 90 89 88 88 88 88 87 87 86 86 85 85 84 84 83 83 83 83 83 83 84 84 85 86 87 89 92 94 95 95 96 96 97 98 100 101 103 104 105 106 107 108 108 110 110 112 113 114 115 115 117 118 119 120 122 124 126 128 130 133 135 137 139 140 141 143 144 144 144 144 143 142 141 141 141 141 141 141 141 142 143 144 145 147
89 88 87 86 85 85 85 85 85 84 84 83 83 82 81 81 80 80 80 79 79 79 80 80 81 82 83 86 89 91 92 92 92 92 93 94 95 97 99 100 101 102 103 104 105 106 107 109 110 111 111 112 114 115 116 117 119 120 122 125 127 129 131 133 135 137 139 141 142 143 144 144 143 142 141 140 140 140 140 140 140 140 141 142 144 145
86 85 84 83 82 82 81 81 81 81 81 80 79 79 78 77 77 77 76 76 76 76 76 77 77 78 79 82 85 88 89 89 88 88 88 89 91 93 95 96 97 98 99 100 101 103 104 105 106 107 109 110 111 112 113 114 115 117 119 121 123 125 128 130 132 134 136 138 140 141 142 143 143 142 142 141 140 139 139 139 139 139 139 140 142 143
83 82 81 80 79 78 78 78 77 77 77 76 75 75 74 74 74 74 73 73 73 73 73 73 74 75 76 78 81 84 86 86 85 84 83 84 86 88 90 92 92 93 94 95 96 98 100 101 102 104 105 106 108 109 110 111 112 114 115 117 119 121 123 126 128 130 133 135 136 138 139 140 141 141 141 141 140 139 139 138 138 138 138 139 140 141
81 80 79 78 76 75 74 73 74 73 73 72 72 71 71 70 70 70 70 70 70 70 70 71 71 73 74 76 78 81 83 83 82 80 79 79 81 83 86 87 88 89 89 90 92 94 96 97 99 100 101 103 104 105 107 108 109 111 112 113 115 117 119 121 124 126 129 131 133 134 136 137 138 139 140 140 140 140 139 138 138 137 137 137 138 139
78 77 76 75 73 72 70 70 70 69 69 69 68 68 67 68 68 68 68 68 68 68 68 68 69 70 72 73 75 77 79 79 78 76 74 74 76 78 81 83 84 84 85 86 88 90 91 93 94 96 97 99 100 102 103 104 106 107 109 110 111 113 115 117 119 122 125 127 129 131 132 133 135 136 137 138 139 140 140 139 138 137 137 137 137 138
76 75 74 73 71 69 68 66 66 65 65 65 65 64 64 64 65 65 66 66 66 66 66 66 67 68 70 71 73 75 76 76 74 72 70 70 71 73 77 79 80 80 81 82 84 86 87 89 90 91 93 95 96 98 99 101 102 104 105 106 108 109 111 112 115 117 120 122 124 126 128 129 131 132 134 135 136 138 138 139 139 138 137 137 136 137
75 74 72 71 69 68 66 64 63 62 62 61 61 61 61 61 61 62 63 64 64 64 64 65 65 66 68 69 71 72 73 73 71 69 67 66 67 69 73 75 76 76 76 78 80 82 83 84 85 87 88 90 92 93 95 97 98 100 101 103 104 105 107 108 110 112 115 117 120 122 124 125 127 128 130 131 133 135 136 137 138 138 137 137 136 136
74 73 71 70 68 67 65 63 62 61 59 59 58 58 58 58 58 59 60 60 61 62 62 62 63 64 66 67 68 69 70 70 68 66 64 63 64 66 69 72 72 72 72 74 76 78 79 80 81 82 84 86 87 89 91 92 94 96 97 99 100 101 103 104 106 108 110 112 114 116 118 120 122 124 125 127 129 131 132 134 135 136 137 137 136 136
72 71 70 69 67 66 65 63 62 61 59 58 57 56 56 55 56 56 57 57 58 58 58 59 60 61 63 64 66 66 67 67 66 64 62 61 62 64 67 69 69 69 69 70 72 73 74 75 76 78 80 82 84 85 87 88 90 91 93 94 96 97 98 100 102 103 105 107 109 111 113 115 117 118 120 122 124 126 128 130 132 134 135 135 135 135
70 68 67 66 65 64 63 62 62 61 60 59 58 56 55 55 55 55 55 55 55 55 55 55 56 58 59 61 62 63 64 65 64 62 61 60 61 62 65 67 67 66 66 66 67 68 69 70 72 74 76 78 80 82 83 85 86 87 88 89 91 92 94 95 97 99 100 102 104 106 108 110 111 113 115 117 119 121 124 126 128 130 131 133 133 134
67 66 65 64 63 62 61 61 60 60 59 58 57 56 56 55 54 54 54 54 53 53 52 53 54 55 56 57 58 60 61 62 61 60 59 59 59 61 64 65 65 64 62 62 63 64 65 66 69 71 73 75 77 78 79 80 82 83 84 85 86 88 89 91 92 94 96 98 99 101 103 105 107 109 111 113 115 117 119 122 124 126 128 129 131 131
65 64 63 62 61 60 60 59 58 58 57 57 56 55 54 54 53 53 53 53 52 51 51 51 52 52 53 54 55 56 57 58 58 58 57 57 58 60 62 63 63 61 60 59 60 61 62 64 66 68 70 72 73 75 76 77 78 79 80 81 82 83 85 86 88 89 91 93 95 96 98 100 102 104 106 109 111 113 116 118 120 122 124 125 127 128
63 62 61 61 60 59 58 58 57 56 56 55 54 53 52 52 52 51 52 51 51 50 50 50 50 50 51 52 53 53 54 54 54 54 54 55 56 58 60 61 60 59 57 57 58 59 60 61 63 65 67 68 69 71 72 73 74 75 76 77 78 79 81 82 84 85 87 88 90 92 94 96 98 100 102 104 107 109 112 114 116 118 120 121 123 124
61 60 60 59 59 58 57 57 56 55 54 53 52 51 50 50 50 50 50 49 49 49 49 49 49 49 49 50 51 51 51 51 51 51 52 52 54 56 58 58 57 57 56 56 56 57 58 60 61 62 63 64 66 67 69 70 71 72 73 73 75 75 77 78 79 81 82 84 85 87 89 91 93 95 97 100 102 105 107 110 112 114 115 117 119 121
59 58 58 58 58 57 57 56 55 54 53 52 51 50 49 48 48 48 48 48 48 48 48 48 47 47 48 48 49 49 50 50 49 49 49 50 52 53 54 55 55 55 54 54 54 55 57 58 58 59 59 61 62 64 66 67 68 69 70 70 71 72 73 75 76 77 78 80 81 83 85 87 89 91 93 95 98 100 103 105 107 109 111 113 115 117
56 56 56 56 56 56 55 54 53 52 51 51 50 49 48 47 46 46 46 46 46 46 46 46 46 46 46 46 46 47 48 48 48 48 48 48 49 51 51 52 52 53 53 52 53 54 55 56 56 56 56 57 59 61 63 64 65 66 67 68 68 69 70 71 72 73 75 76 77 79 81 83 85 87 89 91 94 96 98 100 103 105 107 109 111 114
54 54 54 54 54 54 53 53 52 51 50 50 49 48 47 47 46 45 45 44 44 44 44 44 45 45 45 45 45 45 46 47 46 46 46 47 48 48 49 49 50 50 51 51 51 52 53 53 54 54 54 55 56 58 60 61 62 63 64 65 66 67 67 68 69 70 71 73 74 76 77 79 81 83 85 88 90 92 94 96 98 100 103 105 107 110
52 52 52 53 53 52 51 50 50 49 49 48 48 48 47 46 45 44 44 43 42 42 42 42 42 42 43 43 43 44 45 45 45 45 45 45 46 46 47 47 48 48 48 49 49 50 50 51 52 52 52 53 53 55 56 58 59 60 61 62 63 64 64 65 66 67 68 69 71 72 74 76 78 80 82 84 86 88 90 92 94 96 98 100 103 106
50 50 51 51 51 50 49 48 48 47 47 47 47 47 47 46 45 44 43 42 41 40 40 39 39 40 40 41 41 42 42 43 43 43 43 43 44 45 45 45 46 46 46 47 47 47 48 49 49 50 50 51 51 52 53 55 56 57 58 59 60 61 62 62 63 64 65 67 68 70 71 73 75 77 78 80 82 84 86 88 90 92 94 96 99 101
48 49 49 49 49 48 47 47 46 46 46 46 46 46 46 45 45 44 42 41 40 39 38 37 37 37 37 37 38 39 40 40 40 40 41 41 42 42 43 43 43 44 44 44 45 45 46 46 47 48 48 48 49 50 51 52 53 54 56 57 57 58 59 60 61 62 63 64 66 67 69 70 72 73 75 77 79 81 82 84 86 87 89 92 94 97
46 47 47 48 47 47 46 45 45 45 45 45 45 45 45 45 44 43 42 41 39 38 37 36 36 35 35 35 35 36 37 37 37 38 38 39 39 40 40 41 41 41 41 42 42 43 43 44 44 45 45 46 47 47 48 49 50 51 53 54 55 56 57 57 58 59 60 62 63 65 66 67 69 70 72 74 75 77 79 80 82 84 86 88 90 92
45 45 46 46 45 45 44 44 44 44 44 44 45 44 44 43 43 42 41 40 39 37 36 35 34 34 33 33 33 33 34 34 34 35 35 36 36 37 37 38 38 38 39 39 40 40 41 41 42 42 43 44 44 45 46 47 48 49 50 51 52 53 54 55 56 57 58 59 61 62 64 65 66 68 69 71 72 74 75 77 79 80 82 84 86 88
42 43 43 43 43 43 43 43 43 43 43 43 44 43 43 42 42 41 40 39 38 37 36 35 34 33 32 32 32 32 32 32 32 32 33 33 34 34 34 35 35 36 36 37 37 38 38 39 39 40 40 41 42 43 43 44 45 46 47 48 49 50 51 52 53 55 56 57 59 60 61 62 64 65 66 68 69 71 72 74 76 77 79 81 82 84
41 41 41 41 41 41 41 41 42 42 42 42 42 42 42 41 40 40 39 38 37 36 35 34 33 32 32 31 31 30 30 31 31 31 31 32 32 32 32 33 33 34 34 34 35 35 36 37 37 38 38 39 39 40 41 42 42 44 45 46 47 48 49 50 51 52 53 55 56 57 59 60 61 62 64 65 67 68 70 71 73 74 76 77 79 80
39 39 39 40 40 40 40 40 41 41 41 41 41 41 40 39 39 38 37 37 36 35 34 33 33 32 31 31 30 30 30 29 29 30 30 30 31 31 31 31 31 32 32 32 33 33 34 34 35 35 36 36 37 38 38 39 40 41 42 43 44 45 46 47 49 50 51 52 54 55 56 58 59 60 61 63 64 65 67 68 70 71 73 74 76 77
37 38 38 38 38 39 39 39 39 40 40 40 40 39 39 38 37 37 36 35 35 34 33 32 32 31 31 30 30 29 29 29 29 29 29 29 29 29 29 30 30 30 30 31 31 31 32 32 33 33 34 34 35 36 36 37 38 39 40 41 42 43 44 45 46 47 49 50 51 53 54 55 56 58 59 60 61 63 64 66 67 69 70 71 73 74
36 36 36 37 37 37 38 38 38 38 38 38 38 38 37 37 36 36 35 34 34 33 32 32 31 30 30 29 29 28 28 28 28 28 28 28 28 28 28 28 28 29 29 29 30 30 30 30 31 31 32 32 33 33 34 35 36 37 37 38 40 41 41 42 44 45 46 47 49 50 51 52 54 55 57 58 59 60 62 63 65 66 67 69 70 72
34 34 35 35 35 36 36 36 36 37 36 36 36 36 36 35 35 34 34 33 33 32 31 31 30 30 29 29 28 28 27 27 27 27 27 27 27 27 27 27 27 27 28 28 28 28 29 29 29 29 30 30 31 32 32 33 34 35 35 36 37 38 39 40 41 43 44 45 46 48 49 50 51 53 54 55 57 58 59 61 62 64 65 66 68 69
33 33 33 33 34 34 34 34 35 35 35 35 35 34 34 34 34 33 32 32 31 31 30 29 29 28 28 28 27 27 27 26 26 26 26 26 26 26 26 26 26 26 26 27 27 27 27 27 28 28 28 29 29 30 31 31 32 33 33 34 35 36 37 38 39 40 42 43 44 45 47 48 49 50 52 53 54 56 57 58 60 61 63 64 66 67
31 31 32 32 32 32 32 32 33 33 33 33 33 33 33 33 32 32 31 31 30 30 29 28 28 27 27 26 26 26 26 25 25 25 25 25 25 24 24 25 25 25 25 25 26 26 26 26 26 26 26 27 27 28 29 29 30 31 32 32 33 34 35 36 37 38 39 41 42 43 44 46 47 48 49 50 52 53 54 56 57 59 60 62 63 65
30 30 30 30 30 30 31 31 31 31 31 31 31 31 31 31 31 31 30 30 29 29 28 27 27 26 26 26 25 25 25 24 24 24 24 23 23 23 23 23 23 24 24 24 24 24 25 25 25 25 25 25 26 26 27 28 28 29 30 30 31 32 33 34 35 36 37 38 40 41 42 43 44 46 47 48 50 51 52 54 55 56 58 59 61 63
28 28 29 29 29 29 29 30 29 29 29 29 29 29 30 30 30 30 29 29 28 28 27 27 26 26 25 25 25 24 24 23 23 23 22 22 22 22 22 22 22 22 22 23 23 23 23 23 23 23 23 24 24 25 25 26 26 27 28 29 29 30 31 32 33 34 35 36 37 39 40 41 42 43 45 46 47 49 50 51 53 54 56 58 59 61
27 27 27 27 28 28 28 28 28 28 27 27 27 28 28 28 28 28 28 28 27 27 26 26 26 25 25 25 25 24 23 23 22 22 21 21 21 21 21 21 21 21 21 21 21 21 21 21 22 22 22 22 23 23 24 24 25 25 26 27 27 28 29 30 31 32 33 34 35 36 38 39 40 41 43 44 45 47 48 49 51 52 54 56 58 59
26 26 26 26 26 27 27 27 27 26 26 26 26 26 26 27 27 27 27 27 27 26 26 26 25 25 24 24 24 23 23 22 22 21 21 20 20 19 19 19 19 19 20 20 20 20 20 20 20 20 21 21 21 22 22 22 23 24 24 25 25 26 27 28 29 30 31 32 33 34 35 37 38 39 40 42 43 44 46 47 49 51 52 54 56 58
24 25 25 25 25 26 26 26 26 25 25 24 24 24 25 25 25 25 26 26 26 26 25 25 24 24 24 23 23 23 22 22 21 20 19 19 19 18 18 18 18 18 18 18 19 19 19 19 19 19 19 20 20 20 21 21 22 22 22 23 24 24 25 26 27 28 29 30 31 32 33 35 36 37 38 39 41 42 44 45 47 49 50 52 54 56
23 23 24 24 24 24 25 25 25 24 23 22 22 22 23 23 23 24 24 24 25 25 25 24 24 24 23 23 23 23 22 21 20 19 19 18 18 18 17 17 17 17 17 17 17 17 17 18 18 18 18 18 18 19 19 20 20 20 21 21 22 23 23 24 25 26 27 28 29 30 31 32 34 35 36 37 39 40 42 43 45 47 48 50 52 54
Wind_Direction
276 275 274 273 273 272 272 271 271 270 270 269 269 268 267 267 266 266 265 265 264 264 264 263 263 262 262 262 261 261 261 260 260 259 259 259 258 258 257 257 257 257 256 256 256 256 256 256 255 255 254 254 254 253 253 253 252 252 252 251 251 250 249 248 248 247 247 246 246 245 245 244 244 243 242 242 241 240 240 240 240 240 240 241 241 241
276 276 275 274 274 273 273 272 272 271 271 270 270 269 269 268 268 267 266 266 265 265 264 263 263 262 262 261 261 261 260 260 260 259 259 259 258 258 257 257 256 256 256 256 255 255 255 255 255 254 254 254 253 253 253 252 252 252 251 251 250 250 249 248 248 247 246 245 245 244 244 243 243 242 242 241 241 240 240 239 239 239 239 239 240 240
278 277 276 276 275 275 274 274 273 273 272 271 271 270 270 269 269 268 267 267 266 266 265 264 264 263 262 262 261 261 260 260 259 259 259 258 258 258 257 257 256 256 255 255 255 254 254 254 254 254 253 253 253 253 252 252 251 251 251 251 250 250 249 249 248 247 246 245 244 244 243 243 242 242 241 241 240 240 239 239 239 238 238 238 238 239
279 279 278 277 277 276 276 275 275 274 273 273 272 271 271 270 270 269 268 268 267 266 266 265 264 263 263 262 262 261 260 260 259 259 258 258 258 257 257 256 256 255 255 255 254 254 253 253 253 253 253 252 252 252 252 251 251 251 251 250 250 250 249 249 248 247 246 245 244 243 242 242 241 241 240 240 240 239 239 238 238 238 238 238 238 238
281 280 280 279 278 278 277 277 276 275 275 274 273 273 272 271 270 270 269 268 268 267 266 265 265 264 263 263 262 261 261 260 260 259 259 258 258 257 257 256 256 255 255 254 254 253 253 253 252 252 252 252 252 251 251 251 251 250 250 250 250 249 249 249 248 247 247 246 245 244 242 242 241 240 240 239 239 239 238 238 238 237 237 237 237 237
282 282 281 281 280 280 279 278 278 277 276 276 275 274 273 272 271 270 270 269 268 267 266 266 265 264 264 263 262 262 261 261 260 259 259 258 258 257 257 256 256 255 255 254 253 253 252 252 252 251 251 251 251 251 251 250 250 250 250 250 249 249 249 248 248 248 247 246 245 244 243 242 241 240 239 239 238 238 238 237 237 237 237 237 237 237
284 284 283 283 282 281 281 280 279 279 278 277 276 275 274 273 272 271 270 269 268 267 266 266 265 264 264 263 262 262 261 261 260 260 259 259 258 257 257 256 256 255 255 254 253 253 252 252 251 251 250 250 250 250 250 250 250 250 250 249 249 249 248 248 248 247 247 246 246 245 244 242 241 240 239 238 238 237 237 237 237 236 236 236 236 236
286 285 285 284 284 283 282 282 281 280 279 278 277 276 275 274 273 272 271 270 269 268 267 266 265 264 264 263 262 262 261 261 260 260 259 259 258 257 257 256 256 255 255 254 253 253 252 251 251 250 250 249 249 249 249 249 249 249 249 249 249 249 248 248 248 247 247 247 246 245 244 243 242 241 239 238 238 237 237 236 236 236 236 236 236 236
287 287 286 286 285 284 284 283 282 281 280 279 278 277 276 274 273 272 271 270 269 268 267 266 265 265 264 263 263 262 261 261 260 259 259 258 258 257 257 256 256 255 254 254 253 253 252 251 251 250 249 249 248 248 248 248 248 248 248 248 248 248 248 248 247 247 247 246 246 245 245 244 243 241 240 239 238 237 237 236 236 236 235 235 235 235
289 288 288 287 286 285 284 283 282 281 280 279 278 277 276 275 274 273 272 271 270 269 268 267 266 265 264 264 263 262 261 261 260 259 259 258 258 257 257 256 255 255 254 254 253 253 252 251 251 250 249 249 248 248 247 247 247 247 247 247 247 247 247 247 247 247 247 247 246 246 245 244 243 242 241 240 239 237 237 236 236 235 235 235 235 235
290 289 288 288 287 286 285 284 283 282 281 280 279 278 277 276 275 273 272 271 271 270 269 268 267 266 265 264 263 263 262 261 260 259 259 258 258 257 257 256 256 255 254 254 253 253 252 251 251 250 250 249 248 247 247 246 246 246 246 246 246 246 247 247 247 247 247 247 246 246 245 245 244 243 242 241 239 238 237 236 235 235 235 235 234 234
291 290 289 288 287 286 285 284 283 282 281 280 279 278 277 276 275 274 273 272 271 270 270 269 268 267 266 265 264 263 262 261 261 260 259 259 258 258 257 257 256 256 255 254 254 253 252 252 251 250 250 249 248 248 247 246 246 245 245 245 245 245 246 246 246 246 246 246 246 246 246 245 245 244 243 242 241 239 238 237 236 235 235 234 234 234
291 291 290 289 288 287 286 285 284 283 282 281 280 279 278 277 276 275 274 273 272 271 270 269 268 267 266 265 264 263 262 262 261 260 260 259 259 258 258 257 257 256 256 255 254 254 253 252 251 251 250 249 249 248 247 247 246 245 245 245 245 245 245 245 245 245 245 246 246 246 246 245 245 244 244 243 242 240 239 238 237 235 235 234 234 234
291 291 290 289 288 288 287 286 285 284 283 282 281 280 279 278 277 276 275 274 273 272 271 270 269 268 267 266 265 264 263 262 261 260 260 259 259 258 258 258 257 257 256 256 255 254 254 253 252 252 251 250 249 249 248 247 246 246 245 245 245 244 244 244 244 244 245 245 245 245 245 245 245 245 244 243 243 242 240 239 238 236 235 235 234 234
292 291 290 290 289 288 287 287 286 285 284 283 282 281 280 279 278 277 276 275 274 272 272 271 270 269 268 267 266 265 263 262 261 261 260 260 259 259 258 258 257 257 256 256 256 255 255 254 253 252 252 251 250 249 248 248 247 246 245 245 245 244 244 244 244 244 244 244 244 245 245 245 245 245 244 244 243 242 241 240 239 238 236 235 234 234
292 291 291 290 289 289 288 287 287 286 285 284 283 282 282 281 280 278 277 276 275 273 272 271 270 269 268 267 267 265 264 263 262 261 260 260 260 259 259 258 258 257 257 257 256 256 255 255 254 253 253 252 251 250 249 248 247 247 246 245 245 244 244 244 244 244 244 244 244 244 244 245 245 245 244 244 244 243 242 241 240 239 238 236 235 234
292 292 291 291 290 289 289 288 287 286 285 285 284 283 282 282 280 279 278 277 276 274 273 272 271 270 269 268 267 266 265 264 262 261 261 260 260 260 260 259 258 258 257 257 257 256 256 255 255 254 253 253 252 251 250 249 248 247 246 246 245 245 244 244 244 244 244 244 244 244 244 244 244 244 244 244 244 243 243 242 241 240 239 237 236 235
293 293 292 291 291 290 289 288 288 287 286 285 284 284 283 282 281 280 279 278 277 276 274 273 272 271 269 268 267 267 266 265 263 262 262 261 261 261 260 260 259 259 258 257 257 256 256 255 255 254 254 253 252 252 251 250 249 248 247 246 245 245 244 244 244 244 244 244 244 244 244 244 244 244 244 244 244 243 243 242 242 241 240 239 237 236
294 294 293 292 291 290 290 289 288 287 286 286 285 285 284 283 282 281 280 279 278 277 276 274 273 272 270 269 268 267 267 266 265 264 263 262 262 262 261 261 260 259 258 258 257 257 256 255 255 254 254 253 253 252 251 251 250 249 248 247 246 245 245 244 244 244 244 244 244 244 244 244 244 244 244 244 244 243 243 243 242 241 241 240 238 237
295 295 294 293 292 291 290 289 288 288 287 286 286 285 285 284 283 283 281 280 279 278 276 275 274 273 272 271 270 269 268 267 266 265 264 263 262 262 262 261 260 259 259 258 257 257 256 255 255 254 254 253 253 252 252 251 250 250 249 248 247 246 245 245 244 244 244 244 244 244 244 244 244 244 244 243 243 243 243 243 242 242 241 240 239 238
297 296 295 294 293 292 291 290 288 288 287 287 286 286 285 285 284 283 282 281 280 279 277 276 275 274 273 273 271 270 270 269 268 266 265 264 263 262 262 261 260 260 259 258 258 257 256 256 255 255 254 254 253 252 252 251 251 250 249 249 248 247 246 245 245 244 244 244 244 244 244 244 243 243 243 243 243 243 242 242 242 242 241 240 239 239
298 298 297 296 295 294 293 291 290 289 288 288 287 286 285 285 284 283 282 282 281 280 279 278 277 276 275 274 273 272 271 270 269 268 267 265 264 263 262 261 261 260 259 258 258 257 257 256 255 255 254 254 253 253 252 252 251 250 250 249 249 248 247 246 245 245 244 244 243 243 243 243 243 243 243 242 242 242 242 242 242 241 241 240 240 239
300 299 299 298 297 296 295 294 293 292 291 290 289 287 286 285 284 283 282 281 280 280 279 278 277 276 275 274 274 273 272 272 271 270 268 267 265 264 263 262 261 260 259 258 258 257 257 257 256 256 255 254 254 253 253 252 251 251 250 250 249 249 248 247 247 246 245 244 244 244 243 243 243 243 242 242 242 242 241 241 241 241 241 240 239 239
301 300 300 300 299 299 298 298 297 296 295 293 292 290 289 288 286 285 283 282 281 280 279 279 278 276 276 275 274 274 273 273 272 271 270 268 267 265 264 264 262 261 259 258 258 258 258 257 257 256 256 255 254 254 253 252 252 251 251 250 250 249 249 248 248 247 246 246 245 245 244 244 243 243 242 242 242 241 241 241 241 240 240 240 239 239
301 301 301 300 300 300 300 300 299 299 298 297 295 294 293 291 290 288 286 284 283 282 280 279 278 276 275 275 274 274 274 273 273 272 271 270 268 267 266 265 263 262 260 260 259 259 258 258 257 257 256 255 255 254 253 253 252 252 251 251 250 250 249 249 248 248 247 247 246 246 245 244 244 243 243 242 242 241 241 241 240 240 240 240 239 239
301 301 301 301 301 300 300 300 300 299 299 298 297 296 295 294 293 291 290 288 286 285 283 281 279 277 276 275 274 274 273 273 273 273 272 271 270 268 267 266 265 264 262 262 261 260 259 258 257 256 256 255 255 254 254 253 253 252 252 251 251 250 249 249 248 248 247 247 246 246 245 245 244 243 243 242 242 241 241 240 240 240 239 239 239 238
302 302 301 301 301 301 301 300 300 300 299 298 298 297 296 295 294 293 292 290 289 287 285 283 281 279 277 276 275 274 273 273 273 272 272 271 270 269 268 267 266 266 264 263 262 261 260 258 257 256 256 256 255 255 255 254 254 253 252 252 251 250 250 249 248 248 247 247 246 246 245 245 244 243 243 242 241 241 240 240 240 239 239 239 238 238
302 302 302 302 302 302 301 301 300 300 299 299 298 297 297 296 295 294 293 292 291 289 287 285 283 282 280 278 276 275 274 273 272 272 271 270 270 269 268 268 268 267 266 265 264 262 261 259 257 256 256 256 256 256 255 255 254 253 253 252 251 251 250 249 249 248 247 247 246 245 245 244 244 243 242 242 241 241 240 240 239 239 239 238 238 238
303 303 303 303 303 303 302 302 301 301 300 300 299 298 298 297 296 295 294 293 292 291 289 287 285 284 282 280 279 277 276 274 273 272 271 270 270 269 269 269 269 268 267 266 265 263 262 260 259 257 257 257 256 256 256 255 255 254 253 252 252 251 250 250 249 248 247 247 246 245 245 244 243 243 242 241 241 240 240 239 239 238 238 238 237 237
304 304 304 304 303 303 303 303 303 302 302 301 301 300 300 299 298 297 296 295 294 293 291 289 287 286 284 282 281 280 278 276 275 273 272 271 270 270 270 270 270 269 268 267 266 265 263 262 260 259 258 257 257 256 256 255 255 254 254 253 252 251 250 250 249 248 247 247 246 245 244 244 243 242 242 241 240 240 239 239 238 238 238 237 237 236
304 304 304 304 304 304 304 304 304 304 304 303 303 303 302 302 301 299 298 297 296 294 293 291 289 288 286 284 282 281 280 279 277 276 275 274 272 272 271 271 270 270 269 268 267 266 265 264 262 261 259 258 257 257 256 256 255 255 254 253 252 251 250 250 249 248 247 246 246 245 244 243 243 242 241 241 240 240 239 239 238 238 237 237 236 236
304 304 304 304 304 304 305 305 305 305 306 306 306 305 305 304 303 302 300 299 297 295 294 292 291 289 288 286 284 283 282 281 279 278 277 276 275 274 273 272 272 271 270 269 268 267 266 265 264 262 261 259 258 257 257 256 256 255 254 254 253 252 251 250 249 248 247 246 245 245 244 243 242 242 241 240 240 239 239 238 238 237 237 236 235 235
305 305 305 305 305 305 306 306 307 307 308 308 308 308 307 307 306 304 302 301 299 297 295 293 292 290 289 287 286 285 283 282 281 280 279 278 277 276 275 274 273 272 271 270 269 268 267 266 265 264 262 260 259 258 257 257 256 255 255 254 253 252 251 250 249 248 247 246 245 245 244 243 242 241 241 240 239 239 238 238 237 237 236 236 235 235
305 305 305 305 305 306 307 308 308 309 310 310 310 310 310 309 308 307 305 303 301 299 297 295 293 291 290 288 287 286 284 283 282 281 280 279 278 277 276 275 274 273 272 271 270 269 268 267 266 265 263 261 260 259 258 257 256 256 255 254 253 253 251 250 249 248 247 246 245 244 243 243 242 241 240 240 239 239 238 237 237 236 236 235 234 234
306 306 306 306 306 307 308 309 310 311 312 312 312 312 312 311 310 309 308 306 304 302 300 298 296 293 291 289 288 286 285 283 283 282 281 279 278 277 276 275 274 273 272 271 270 269 268 267 266 265 264 262 261 259 258 257 256 256 255 254 253 252 251 250 249 248 247 246 245 244 243 242 241 241 240 239 239 238 238 237 237 236 235 235 234 233
307 307 307 307 308 309 310 311 312 313 314 314 314 314 314 313 312 311 310 308 307 305 303 301 299 297 294 292 290 288 286 285 284 283 281 280 279 278 276 275 275 274 273 272 271 270 269 268 267 265 264 263 262 260 259 258 257 256 255 254 253 252 251 250 249 248 247 246 245 244 243 242 241 240 240 239 239 238 237 237 236 236 235 234 233 233
307 307 308 308 309 310 312 313 314 315 315 315 315 315 315 314 313 313 312 310 309 307 306 304 302 300 298 296 293 291 289 288 286 285 284 282 281 279 278 277 276 275 274 273 272 271 269 268 267 266 265 263 262 261 260 258 257 256 255 254 253 252 251 250 249 248 246 245 244 243 243 242 241 240 239 239 238 237 237 236 236 235 234 234 233 232
308 308 308 309 310 312 313 314 315 316 317 317 317 316 316 315 315 314 313 312 311 309 308 307 305 303 301 299 297 295 294 292 291 289 287 286 284 283 281 280 278 277 275 274 273 271 270 269 268 266 265 264 262 261 260 259 258 256 255 254 253 252 251 250 249 247 246 245 244 243 242 241 240 240 239 238 237 237 236 236 235 234 234 233 232 232
308 309 309 311 312 313 315 316 317 317 318 318 318 317 317 316 316 315 314 313 312 311 310 309 308 306 304 303 301 300 298 297 295 294 292 290 288 287 285 283 281 279 278 276 274 273 271 270 268 267 265 264 263 261 260 259 257 256 255 254 253 252 251 250 249 247 246 245 244 243 242 241 240 239 238 238 237 236 235 235 234 234 233 232 232 231
309 310 311 312 313 315 316 317 318 319 319 319 318 318 318 317 317 316 315 315 314 313 313 312 311 309 308 307 305 304 302 301 299 297 295 293 291 289 288 286 284 282 280 278 276 274 273 271 269 268 266 265 263 261 260 258 257 256 255 254 253 252 250 249 248 247 246 245 244 243 242 241 240 239 238 237 236 236 235 234 233 233 232 231 231 230
310 311 312 314 315 316 317 318 319 319 320 320 319 319 318 318 318 318 317 317 316 315 315 314 313 312 311 310 309 307 306 304 302 300 298 296 294 292 290 288 286 285 282 280 278 276 274 272 270 269 267 265 263 262 260 258 257 256 254 253 252 251 250 249 248 247 246 245 244 243 242 241 240 239 238 237 236 235 234 233 233 232 231 230 230 229
311 313 314 315 316 317 319 319 320 320 320 320 320 320 320 320 320 319 319 319 318 318 317 317 316 315 314 313 312 311 309 307 305 303 300 298 296 294 292 290 288 286 284 282 280 277 275 273 271 269 267 265 264 262 260 259 257 255 254 253 252 251 250 249 248 247 246 245 244 243 242 241 240 239 238 237 236 235 234 233 232 231 230 229 228 228
312 313 314 316 317 318 319 320 321 321 321 322 322 322 322 322 322 322 321 321 320 320 319 319 318 318 317 316 315 314 312 310 308 305 303 301 299 297 295 293 290 288 286 283 281 279 276 274 271 269 267 266 264 262 261 259 257 256 254 253 252 251 250 248 247 246 245 244 243 242 241 241 240 239 238 237 236 234 233 233 231 231 229 228 228 226
313 313 315 316 317 319 319 321 321 322 323 324 324 324 324 324 323 323 323 323 322 322 322 321 321 320 319 318 317 316 314 312 310 308 306 304 302 300 297 295 292 290 288 285 282 280 278 275 273 270 269 266 265 263 261 259 258 256 254 253 252 250 249 248 247 246 245 244 243 242 241 240 239 238 237 236 235 234 233 232 231 230 229 228 227 226
312 313 315 316 318 319 320 322 323 324 325 325 326 326 326 326 325 325 325 325 324 324 323 323 323 322 321 320 319 317 316 314 312 310 308 306 304 302 300 297 295 292 290 287 285 282 280 277 275 272 270 268 266 264 262 260 258 256 254 253 252 250 249 248 247 246 245 244 243 242 241 240 239 238 237 236 235 234 233 232 231 229 228 227 226 225
312 313 315 316 318 320 321 322 323 325 326 326 327 327 327 327 327 327 327 326 326 326 326 326 325 324 323 322 321 319 317 316 314 312 310 308 306 304 302 300 297 295 292 290 287 285 282 280 277 275 273 270 267 265 263 261 259 257 255 254 252 251 249 248 247 246 245 244 242 241 240 239 238 237 236 235 234 233 232 231 230 229 228 226 225 224
313 314 316 317 319 320 322 323 324 325 326 328 329 329 329 329 329 329 328 328 328 329 328 328 328 327 325 324 322 321 319 318 316 314 313 311 309 306 305 302 300 297 295 292 290 288 285 283 280 278 275 272 270 267 265 262 260 258 256 254 253 251 250 248 247 246 245 243 242 241 240 238 237 236 235 234 233 232 231 230 229 228 227 226 224 223
313 315 317 318 320 321 322 323 324 325 327 328 330 330 330 331 330 330 330 330 331 330 331 330 330 329 327 325 324 322 320 319 318 316 315 313 311 309 307 305 303 301 298 295 293 290 288 286 283 280 277 275 272 269 267 264 262 260 258 256 254 252 250 249 247 246 244 243 242 241 239 238 237 235 234 233 232 231 230 229 228 227 226 224 223 222
314 316 317 319 321 322 322 323 323 324 326 329 331 332 332 332 332 332 333 333 332 333 332 332 332 331 329 327 325 323 321 319 318 317 316 315 314 313 311 309 307 304 302 299 296 294 291 288 286 283 280 277 274 271 269 266 264 261 259 257 255 253 251 249 247 246 244 243 242 240 239 237 236 235 233 232 231 230 229 228 227 226 224 223 222 221
314 316 318 320 321 322 322 322 322 323 325 328 331 333 334 334 334 334 335 335 335 334 334 334 333 332 331 329 327 325 322 321 320 319 319 319 318 318 316 314 312 309 306 303 300 298 295 292 289 286 283 280 277 274 271 269 266 263 261 258 256 253 251 249 248 246 244 243 241 240 238 237 235 234 233 231 230 229 228 227 226 224 223 222 221 220
315 317 319 320 321 321 321 321 321 321 324 328 331 334 336 336 336 337 337 337 337 337 336 335 335 335 334 332 330 328 326 325 324 324 323 324 325 324 323 321 318 316 312 310 306 303 300 297 294 291 287 284 280 277 274 271 268 266 263 260 257 254 251 249 247 245 244 242 240 239 237 236 234 233 232 230 229 228 227 226 224 223 222 221 220 219
Height
10355 10350 10348 10346 10343 10338 10334 10331 10329 10326 10324 10321 10320 10319 10318 10316 10314 10313 10312 10311 10309 10309 10309 10309 10308 10308 10308 10308 10307 10306 10306 10305 10306 10306 10307 10308 10309 10311 10313 10314 10316 10317 10318 10320 10321 10323 10325 10327 10329 10331 10334 10337 10339 10343 10346 10348 10351 10354 10358 10361 10364 10369 10373 10377 10381 10386 10389 10394 10398 10402 10406 10411 10416 10420 10424 10429 10434 10438 10443 10447 10451 10455 10459 10464 10468 10473
10342 10338 10335 10333 10330 10326 10322 10318 10316 10313 10311 10308 10306 10306 10304 10303 10301 10299 10298 10297 10296 10295 10294 10294 10294 10294 10294 10294 10293 10293 10291 10291 10291 10291 10292 10293 10294 10296 10298 10300 10301 10303 10304 10306 10308 10309 10311 10313 10314 10316 10319 10321 10324 10327 10330 10333 10336 10339 10342 10345 10349 10353 10356 10361 10365 10369 10374 10378 10383 10387 10391 10396 10401 10405 10410 10415 10419 10424 10429 10434 10438 10443 10447 10451 10456 10460
10329 10325 10321 10319 10317 10314 10310 10305 10302 10300 10298 10295 10293 10292 10291 10289 10287 10286 10284 10283 10282 10281 10279 10279 10279 10279 10279 10279 10279 10278 10277 10276 10276 10276 10277 10278 10279 10281 10283 10284 10286 10288 10290 10291 10293 10295 10296 10298 10300 10303 10304 10307 10309 10312 10315 10318 10321 10324 10327 10330 10333 10337 10341 10344 10349 10353 10358 10362 10366 10371 10376 10381 10386 10390 10395 10400 10405 10410 10415 10420 10425 10429 10434 10438 10443 10447
10317 10312 10308 10306 10304 10301 10297 10293 10289 10286 10284 10282 10280 10278 10277 10275 10274 10272 10270 10269 10268 10266 10265 10264 10264 10264 10264 10264 10264 10263 10262 10261 10261 10261 10262 10263 10264 10266 10268 10269 10271 10273 10274 10276 10278 10280 10282 10284 10286 10288 10291 10293 10295 10298 10300 10303 10306 10309 10312 10315 10319 10322 10326 10329 10333 10337 10341 10346 10350 10355 10360 10365 10370 10375 10380 10386 10391 10396 10401 10406 10411 10416 10421 10425 10430 10434
10304 10299 10295 10293 10290 10288 10284 10279 10276 10273 10270 10268 10266 10265 10263 10261 10260 10258 10256 10255 10253 10252 10250 10249 10249 10249 10249 10249 10249 10248 10247 10246 10246 10246 10247 10248 10249 10251 10252 10254 10256 10258 10259 10261 10263 10265 10268 10269 10272 10274 10277 10279 10281 10284 10286 10289 10292 10294 10298 10301 10304 10308 10311 10314 10318 10321 10325 10329 10334 10339 10344 10349 10354 10360 10365 10371 10376 10381 10386 10392 10397 10402 10407 10412 10417 10421
10290 10287 10283 10279 10276 10274 10270 10267 10263 10259 10256 10254 10253 10251 10249 10248 10246 10244 10243 10241 10239 10238 10236 10235 10235 10235 10234 10234 10234 10233 10232 10231 10231 10231 10232 10233 10234 10236 10237 10238 10240 10241 10243 10245 10248 10249 10252 10254 10258 10260 10263 10265 10268 10271 10273 10276 10278 10281 10283 10286 10289 10293 10296 10299 10303 10306 10309 10313 10318 10322 10328 10333 10338 10344 10350 10356 10361 10366 10372 10378 10383 10388 10393 10398 10403 10408
10277 10274 10271 10266 10263 10260 10258 10254 10250 10246 10242 10240 10239 10238 10236 10234 10231 10229 10228 10226 10225 10224 10223 10222 10221 10221 10221 10219 10219 10218 10218 10217 10217 10217 10218 10218 10219 10220 10221 10223 10224 10226 10228 10229 10231 10234 10236 10239 10243 10245 10248 10251 10254 10258 10260 10263 10265 10267 10269 10272 10275 10278 10281 10284 10288 10291 10294 10298 10301 10306 10311 10317 10323 10328 10334 10340 10346 10351 10357 10363 10368 10374 10379 10384 10389 10394
10264 10261 10258 10254 10250 10247 10245 10242 10238 10233 10229 10226 10226 10224 10223 10221 10218 10216 10214 10213 10212 10211 10209 10208 10208 10208 10207 10206 10205 10204 10203 10203 10203 10203 10203 10203 10204 10204 10206 10207 10208 10210 10212 10214 10216 10218 10221 10224 10227 10230 10234 10237 10241 10244 10246 10249 10251 10254 10256 10258 10261 10264 10267 10270 10273 10276 10279 10283 10286 10291 10295 10301 10306 10313 10319 10324 10331 10336 10342 10348 10354 10359 10364 10370 10376 10381
10251 10248 10245 10242 10238 10234 10231 10229 10225 10221 10216 10213 10212 10211 10209 10207 10204 10203 10201 10200 10199 10197 10196 10195 10194 10194 10194 10193 10191 10190 10190 10189 10189 10189 10189 10189 10189 10189 10191 10192 10194 10195 10197 10199 10201 10203 10206 10209 10212 10215 10219 10223 10226 10229 10232 10235 10238 10240 10243 10244 10247 10249 10253 10256 10258 10261 10265 10268 10271 10276 10280 10285 10291 10296 10303 10309 10316 10321 10328 10333 10339 10344 10350 10356 10361 10367
10239 10236 10233 10230 10227 10223 10219 10215 10211 10208 10204 10201 10199 10198 10196 10194 10191 10190 10189 10188 10186 10184 10182 10182 10182 10182 10181 10180 10178 10177 10176 10175 10176 10176 10175 10175 10175 10176 10176 10178 10179 10181 10183 10184 10186 10188 10191 10194 10197 10200 10203 10207 10211 10214 10218 10221 10223 10226 10228 10231 10233 10236 10238 10241 10244 10248 10251 10254 10257 10261 10265 10269 10275 10281 10287 10294 10300 10306 10313 10319 10324 10330 10336 10341 10348 10353
10226 10224 10221 10218 10215 10211 10207 10203 10199 10196 10193 10189 10186 10185 10184 10181 10179 10178 10178 10177 10175 10172 10170 10169 10170 10170 10169 10168 10166 10163 10162 10161 10162 10163 10163 10163 10163 10163 10163 10164 10165 10167 10168 10170 10173 10174 10178 10180 10183 10186 10188 10191 10195 10199 10203 10206 10209 10212 10214 10217 10219 10222 10224 10228 10231 10233 10236 10239 10243 10246 10251 10255 10260 10266 10271 10278 10285 10292 10298 10304 10310 10316 10322 10328 10333 10339
10214 10211 10209 10206 10203 10199 10194 10191 10187 10184 10181 10178 10175 10173 10172 10170 10168 10166 10166 10165 10164 10161 10159 10158 10158 10158 10158 10156 10153 10150 10148 10148 10148 10149 10150 10151 10151 10151 10151 10151 10153 10154 10155 10157 10159 10162 10164 10166 10169 10171 10174 10177 10180 10184 10188 10191 10194 10198 10200 10203 10206 10208 10211 10214 10216 10219 10223 10226 10229 10233 10236 10241 10246 10251 10256 10263 10270 10277 10283 10290 10296 10302 10308 10314 10319 10325
10203 10199 10197 10194 10191 10186 10182 10178 10175 10173 10171 10167 10164 10161 10160 10159 10157 10155 10154 10154 10153 10151 10148 10146 10146 10146 10145 10143 10139 10138 10136 10135 10136 10137 10138 10139 10139 10139 10139 10139 10140 10141 10143 10144 10147 10149 10151 10153 10155 10157 10159 10163 10166 10169 10173 10176 10180 10183 10186 10189 10191 10194 10197 10199 10203 10206 10208 10211 10214 10218 10222 10226 10231 10236 10242 10248 10255 10262 10269 10276 10282 10288 10294 10300 10306 10312
10192 10189 10186 10183 10179 10175 10171 10167 10164 10162 10159 10156 10153 10151 10149 10148 10146 10145 10143 10143 10143 10141 10138 10136 10136 10135 10134 10130 10127 10124 10123 10123 10124 10126 10128 10128 10128 10128 10127 10127 10128 10130 10131 10133 10134 10137 10138 10140 10141 10144 10147 10149 10153 10156 10159 10163 10166 10169 10173 10175 10178 10181 10183 10186 10189 10192 10194 10198 10201 10204 10208 10212 10216 10222 10228 10234 10241 10247 10254 10261 10268 10274 10281 10287 10293 10298
10183 10179 10176 10173 10169 10165 10161 10157 10154 10151 10148 10145 10142 10140 10139 10138 10136 10134 10133 10132 10131 10130 10128 10126 10126 10125 10123 10119 10114 10111 10110 10111 10113 10116 10117 10118 10118 10117 10116 10116 10117 10119 10120 10121 10123 10124 10126 10128 10129 10131 10134 10136 10139 10143 10146 10149 10153 10156 10159 10162 10165 10168 10170 10173 10176 10178 10181 10184 10187 10190 10193 10198 10203 10208 10214 10221 10227 10233 10240 10247 10254 10261 10268 10274 10279 10285
10173 10169 10166 10163 10160 10156 10152 10148 10144 10141 10138 10135 10133 10131 10129 10128 10126 10124 10123 10121 10121 10120 10119 10117 10116 10114 10113 10109 10103 10099 10098 10099 10103 10106 10108 10109 10108 10106 10104 10105 10106 10109 10110 10111 10112 10113 10115 10116 10117 10119 10121 10124 10127 10129 10133 10136 10139 10143 10146 10149 10152 10155 10158 10161 10163 10166 10168 10171 10173 10176 10180 10184 10189 10194 10201 10207 10213 10219 10226 10233 10240 10247 10254 10261 10267 10273
10164 10161 10157 10154 10151 10148 10144 10139 10136 10132 10129 10126 10124 10122 10120 10118 10116 10115 10113 10112 10111 10110 10109 10108 10106 10104 10103 10099 10093 10088 10086 10087 10092 10096 10099 10100 10099 10098 10095 10094 10096 10099 10101 10102 10102 10103 10104 10104 10106 10107 10109 10111 10114 10116 10119 10123 10126 10129 10133 10136 10139 10143 10146 10148 10151 10153 10156 10158 10161 10164 10167 10171 10176 10181 10188 10194 10200 10206 10213 10219 10226 10234 10241 10248 10254 10260
10156 10152 10148 10145 10143 10139 10136 10131 10127 10123 10121 10118 10116 10114 10113 10110 10108 10106 10104 10103 10101 10100 10099 10098 10097 10095 10092 10088 10084 10079 10076 10077 10081 10087 10091 10092 10091 10089 10086 10085 10087 10089 10092 10093 10093 10092 10092 10093 10094 10095 10097 10099 10101 10103 10106 10109 10113 10116 10119 10123 10126 10130 10133 10136 10139 10141 10143 10146 10149 10152 10156 10159 10164 10169 10175 10181 10187 10193 10200 10206 10213 10220 10227 10234 10241 10248
10147 10143 10139 10136 10133 10131 10129 10124 10119 10116 10113 10111 10109 10107 10104 10103 10100 10098 10096 10094 10093 10091 10089 10088 10087 10084 10082 10079 10075 10071 10068 10069 10072 10078 10083 10084 10083 10081 10078 10076 10077 10079 10082 10083 10083 10081 10081 10082 10083 10084 10086 10087 10089 10091 10094 10096 10099 10103 10106 10109 10113 10117 10121 10124 10126 10129 10131 10134 10137 10140 10144 10148 10153 10158 10163 10169 10174 10181 10187 10193 10200 10207 10214 10221 10228 10234
10138 10134 10131 10127 10124 10123 10121 10118 10113 10109 10106 10104 10102 10100 10098 10095 10093 10090 10088 10086 10084 10083 10081 10079 10078 10075 10073 10069 10067 10063 10061 10061 10064 10069 10074 10076 10076 10073 10069 10066 10067 10069 10073 10073 10073 10071 10071 10071 10073 10074 10076 10077 10078 10080 10083 10085 10088 10090 10093 10096 10100 10104 10108 10111 10114 10117 10119 10122 10125 10129 10133 10137 10141 10146 10151 10157 10162 10168 10174 10180 10186 10194 10201 10208 10214 10221
10128 10124 10121 10119 10118 10115 10109 10109 10107 10103 10100 10098 10096 10094 10091 10089 10086 10083 10081 10078 10076 10074 10073 10071 10069 10067 10064 10062 10059 10056 10054 10054 10057 10061 10065 10068 10068 10065 10060 10057 10058 10060 10063 10064 10063 10061 10061 10062 10064 10065 10066 10067 10068 10070 10072 10074 10076 10079 10081 10084 10088 10091 10095 10099 10102 10104 10108 10110 10113 10117 10121 10125 10129 10134 10139 10145 10150 10155 10161 10166 10173 10179 10186 10194 10201 10208
10118 10114 10112 10109 10108 10106 10101 10100 10099 10096 10093 10092 10090 10088 10084 10084 10081 10077 10074 10071 10068 10067 10066 10064 10062 10059 10057 10054 10051 10048 10047 10048 10050 10054 10057 10059 10059 10056 10051 10048 10049 10052 10054 10054 10053 10051 10051 10053 10056 10057 10058 10058 10059 10060 10062 10064 10066 10068 10071 10073 10076 10079 10083 10086 10089 10093 10096 10098 10101 10105 10109 10113 10118 10123 10128 10133 10138 10143 10148 10153 10159 10166 10173 10179 10187 10194
10109 10106 10103 10100 10098 10095 10093 10091 10089 10087 10085 10085 10082 10079 10079 10078 10074 10070 10068 10065 10063 10061 10059 10058 10055 10053 10049 10047 10044 10043 10041 10041 10043 10046 10050 10050 10050 10048 10043 10039 10041 10044 10045 10046 10044 10043 10044 10046 10048 10049 10049 10049 10050 10051 10053 10054 10056 10058 10061 10063 10066 10069 10073 10076 10079 10082 10084 10088 10091 10094 10098 10101 10106 10111 10116 10121 10126 10131 10136 10141 10146 10152 10158 10166 10173 10180
10102 10099 10096 10093 10089 10087 10084 10082 10080 10078 10076 10075 10074 10072 10071 10069 10067 10064 10061 10059 10058 10056 10053 10052 10049 10045 10043 10040 10038 10036 10035 10034 10036 10039 10042 10042 10041 10039 10035 10032 10032 10034 10036 10038 10037 10037 10038 10039 10041 10041 10041 10041 10041 10042 10043 10044 10046 10049 10051 10054 10057 10060 10063 10066 10069 10072 10075 10078 10081 10084 10088 10091 10096 10100 10104 10109 10114 10119 10124 10129 10134 10139 10145 10152 10159 10166
10096 10094 10091 10088 10084 10082 10079 10077 10074 10072 10070 10068 10067 10066 10064 10063 10060 10058 10054 10053 10052 10051 10048 10046 10044 10039 10036 10035 10033 10031 10029 10029 10030 10032 10034 10034 10033 10031 10028 10024 10023 10026 10029 10031 10031 10031 10032 10033 10033 10032 10032 10032 10033 10033 10034 10036 10038 10040 10043 10046 10048 10051 10054 10057 10059 10063 10066 10069 10072 10075 10079 10083 10086 10090 10094 10099 10103 10108 10112 10117 10122 10127 10133 10138 10145 10153
10092 10089 10086 10084 10081 10079 10078 10075 10072 10068 10066 10065 10064 10061 10058 10057 10054 10051 10048 10047 10046 10044 10043 10039 10036 10034 10031 10030 10028 10026 10024 10024 10024 10025 10027 10028 10026 10023 10019 10016 10016 10019 10023 10024 10024 10024 10025 10026 10025 10024 10023 10023 10024 10025 10026 10028 10030 10033 10035 10037 10039 10042 10044 10048 10050 10053 10056 10059 10062 10066 10069 10073 10077 10081 10084 10089 10093 10097 10101 10106 10110 10115 10121 10126 10133 10139
10086 10083 10080 10078 10076 10073 10070 10067 10064 10062 10060 10058 10056 10053 10051 10051 10048 10044 10042 10040 10039 10038 10036 10033 10030 10028 10026 10024 10022 10020 10019 10019 10019 10019 10021 10021 10018 10014 10011 10009 10011 10014 10017 10018 10018 10018 10018 10018 10017 10016 10015 10016 10016 10018 10019 10021 10023 10025 10027 10029 10031 10034 10036 10038 10041 10043 10046 10049 10052 10055 10059 10062 10066 10070 10074 10078 10082 10086 10090 10094 10099 10104 10109 10114 10121 10128
10079 10077 10074 10071 10069 10066 10064 10062 10059 10057 10055 10053 10051 10049 10047 10045 10043 10039 10036 10034 10033 10031 10029 10027 10024 10022 10021 10018 10016 10014 10013 10014 10014 10014 10014 10014 10011 10007 10005 10004 10006 10009 10010 10011 10011 10010 10009 10009 10008 10009 10009 10010 10011 10012 10013 10014 10016 10018 10019 10021 10023 10025 10028 10029 10031 10034 10036 10039 10042 10045 10048 10051 10055 10059 10063 10066 10071 10074 10079 10083 10088 10093 10098 10104 10109 10116
10075 10072 10069 10066 10064 10061 10059 10057 10054 10053 10050 10048 10046 10044 10041 10040 10038 10034 10031 10029 10028 10026 10023 10021 10019 10017 10015 10013 10011 10009 10008 10008 10008 10008 10009 10008 10004 10001 10001 10001 10001 10003 10003 10004 10004 10003 10001 10001 10001 10003 10004 10005 10006 10006 10006 10007 10008 10010 10012 10014 10016 10017 10019 10021 10023 10025 10028 10030 10033 10036 10038 10041 10044 10048 10052 10056 10059 10063 10068 10072 10076 10081 10087 10093 10099 10106
10071 10068 10064 10062 10059 10056 10054 10052 10049 10048 10045 10043 10041 10038 10036 10034 10032 10029 10026 10024 10023 10020 10018 10016 10014 10012 10010 10008 10006 10004 10003 10002 10003 10003 10003 10002 9999 9996 9996 9996 9996 9996 9997 9998 9997 9996 9994 9994 9995 9997 9999 9999 9999 9999 9999 10000 10001 10003 10004 10006 10008 10009 10011 10013 10014 10016 10019 10021 10024 10027 10029 10033 10035 10038 10042 10045 10049 10053 10057 10061 10066 10071 10076 10082 10088 10094
10067 10064 10061 10058 10055 10053 10050 10048 10045 10043 10040 10038 10035 10033 10031 10029 10026 10024 10021 10020 10018 10015 10013 10011 10009 10007 10006 10004 10002 9999 9998 9998 9997 9998 9998 9996 9994 9993 9993 9992 9991 9991 9991 9992 9992 9990 9988 9988 9989 9991 9993 9994 9994 9993 9993 9994 9995 9996 9997 9999 10000 10001 10003 10004 10006 10009 10011 10013 10016 10018 10021 10023 10026 10029 10033 10036 10039 10043 10047 10051 10056 10061 10066 10071 10078 10083
10064 10061 10058 10054 10051 10049 10046 10044 10041 10039 10036 10033 10031 10028 10026 10024 10021 10019 10018 10016 10013 10011 10009 10006 10004 10003 10001 10000 9998 9996 9994 9993 9993 9993 9993 9991 9989 9988 9988 9988 9986 9986 9986 9986 9986 9985 9984 9983 9984 9985 9986 9988 9988 9988 9988 9988 9989 9989 9991 9992 9993 9994 9996 9998 10000 10002 10004 10006 10008 10010 10013 10015 10018 10021 10023 10026 10030 10034 10038 10041 10046 10051 10056 10061 10067 10073
10060 10057 10054 10051 10048 10046 10043 10041 10038 10035 10032 10029 10026 10023 10021 10019 10017 10015 10013 10011 10009 10008 10005 10003 10001 9999 9997 9996 9994 9992 9991 9989 9988 9988 9988 9986 9984 9983 9983 9983 9982 9981 9981 9981 9980 9980 9979 9978 9978 9979 9980 9981 9982 9982 9982 9983 9983 9984 9984 9986 9987 9988 9990 9992 9994 9996 9998 9999 10001 10003 10005 10007 10009 10013 10015 10018 10021 10024 10028 10033 10036 10041 10046 10052 10058 10063
10056 10054 10051 10048 10045 10043 10040 10038 10035 10032 10029 10026 10023 10019 10017 10014 10013 10011 10009 10007 10005 10003 10001 9999 9998 9995 9993 9991 9990 9988 9987 9986 9984 9984 9984 9983 9981 9979 9978 9978 9978 9977 9976 9976 9975 9975 9975 9974 9974 9974 9974 9975 9976 9976 9976 9977 9978 9978 9979 9980 9981 9982 9984 9986 9988 9989 9991 9992 9994 9996 9998 9999 10002 10004 10008 10010 10013 10017 10020 10024 10028 10033 10038 10043 10048 10054
10053 10050 10048 10044 10042 10039 10037 10034 10031 10029 10026 10023 10019 10016 10014 10011 10009 10007 10005 10003 10001 9999 9998 9996 9994 9993 9991 9988 9986 9985 9983 9982 9981 9981 9980 9978 9977 9976 9974 9974 9973 9973 9973 9971 9971 9971 9970 9969 9969 9969 9969 9970 9971 9971 9971 9971 9972 9973 9973 9974 9975 9976 9978 9979 9981 9983 9984 9986 9987 9989 9991 9993 9995 9998 10001 10003 10006 10009 10013 10017 10021 10025 10030 10035 10040 10046
10050 10047 10044 10041 10039 10036 10034 10031 10028 10026 10023 10019 10016 10014 10011 10008 10006 10004 10001 9999 9998 9996 9994 9992 9991 9989 9988 9986 9984 9981 9979 9979 9978 9977 9977 9975 9974 9973 9971 9969 9969 9969 9969 9967 9966 9966 9966 9966 9965 9965 9965 9965 9966 9966 9966 9966 9967 9968 9968 9969 9970 9971 9972 9974 9975 9976 9978 9979 9981 9983 9984 9986 9989 9991 9994 9997 9999 10003 10006 10010 10014 10018 10023 10027 10032 10038
10048 10044 10042 10039 10036 10034 10031 10028 10026 10023 10019 10017 10014 10011 10009 10006 10004 10001 9999 9997 9995 9993 9991 9989 9988 9986 9984 9983 9981 9979 9977 9975 9974 9974 9973 9972 9971 9970 9968 9966 9965 9965 9965 9964 9963 9962 9962 9961 9961 9961 9961 9961 9961 9961 9961 9962 9963 9963 9963 9964 9965 9966 9967 9968 9969 9971 9973 9974 9975 9976 9978 9981 9983 9985 9988 9990 9993 9996 10000 10004 10007 10011 10015 10019 10024 10030
10045 10042 10039 10036 10034 10031 10029 10026 10023 10020 10017 10014 10011 10009 10006 10004 10001 9999 9996 9994 9992 9990 9988 9986 9984 9982 9981 9979 9978 9976 9974 9973 9971 9970 9969 9969 9968 9966 9965 9963 9962 9961 9961 9961 9959 9959 9959 9958 9957 9957 9957 9956 9957 9957 9957 9958 9958 9958 9959 9959 9960 9961 9962 9963 9964 9966 9967 9968 9969 9971 9973 9975 9977 9979 9982 9984 9987 9990 9994 9997 10001 10004 10008 10013 10018 10023
10043 10040 10037 10034 10032 10029 10026 10023 10021 10018 10015 10012 10009 10007 10004 10001 9999 9996 9994 9992 9989 9988 9986 9983 9981 9979 9977 9976 9974 9973 9971 9969 9968 9967 9966 9965 9964 9963 9962 9960 9959 9958 9957 9957 9956 9956 9955 9954 9954 9953 9953 9953 9953 9953 9953 9953 9954 9954 9954 9955 9956 9957 9958 9959 9960 9961 9963 9964 9965 9966 9968 9970 9972 9974 9976 9979 9981 9984 9988 9991 9994 9998 10002 10006 10012 10017
10040 10038 10035 10032 10029 10027 10024 10021 10018 10016 10013 10010 10008 10004 10002 9999 9997 9994 9992 9990 9988 9985 9983 9981 9979 9976 9974 9973 9971 9970 9968 9967 9966 9964 9963 9962 9961 9960 9959 9958 9956 9954 9954 9954 9953 9953 9953 9951 9950 9949 9949 9949 9949 9949 9949 9949 9950 9950 9951 9951 9952 9953 9953 9954 9956 9957 9958 9959 9961 9962 9964 9966 9968 9969 9971 9974 9976 9979 9982 9985 9988 9992 9996 10001 10006 10011
10038 10036 10033 10030 10028 10024 10022 10019 10017 10014 10011 10008 10006 10003 10001 9998 9996 9993 9991 9988 9986 9983 9981 9979 9976 9974 9972 9970 9969 9967 9966 9964 9963 9962 9961 9959 9958 9958 9956 9955 9954 9953 9952 9951 9950 9950 9950 9948 9948 9947 9947 9946 9946 9946 9946 9946 9946 9947 9948 9948 9948 9948 9949 9951 9952 9953 9954 9955 9956 9958 9959 9961 9963 9965 9967 9969 9972 9974 9978 9981 9984 9987 9991 9996 10001 10006
10036 10033 10031 10028 10026 10023 10020 10018 10015 10012 10009 10007 10004 10001 9999 9996 9994 9991 9989 9986 9984 9981 9979 9977 9974 9973 9970 9968 9966 9965 9964 9963 9961 9959 9958 9957 9956 9954 9953 9953 9952 9951 9950 9949 9948 9947 9946 9946 9945 9944 9944 9944 9944 9943 9943 9943 9943 9944 9944 9944 9944 9945 9946 9947 9948 9949 9951 9951 9953 9954 9956 9958 9959 9961 9963 9965 9968 9970 9973 9976 9979 9983 9986 9991 9995 10000
10034 10031 10029 10026 10024 10021 10019 10016 10013 10011 10008 10006 10003 10000 9998 9995 9993 9990 9988 9985 9983 9980 9978 9976 9974 9971 9969 9967 9965 9964 9963 9961 9959 9958 9956 9954 9953 9953 9951 9950 9949 9948 9948 9946 9945 9944 9943 9943 9943 9942 9941 9941 9941 9940 9939 9939 9940 9940 9941 9941 9942 9943 9943 9943 9944 9946 9947 9948 9949 9951 9952 9954 9955 9957 9959 9961 9964 9966 9969 9972 9975 9978 9982 9986 9990 9994
10032 10029 10027 10024 10022 10020 10018 10015 10012 10009 10007 10004 10002 9999 9996 9994 9992 9989 9987 9984 9982 9979 9978 9975 9973 9971 9968 9966 9964 9963 9961 9959 9958 9956 9954 9953 9952 9951 9949 9948 9947 9946 9946 9944 9943 9942 9941 9941 9940 9939 9939 9939 9938 9938 9937 9937 9937 9938 9938 9938 9939 9940 9939 9939 9941 9943 9943 9944 9946 9947 9948 9949 9951 9953 9956 9958 9960 9963 9965 9968 9971 9974 9978 9982 9986 9990
10030 10028 10026 10023 10021 10019 10016 10014 10011 10008 10006 10003 10001 9998 9996 9993 9991 9989 9986 9984 9981 9979 9977 9974 9972 9970 9968 9966 9964 9962 9959 9958 9956 9954 9953 9952 9950 9949 9948 9947 9946 9944 9944 9943 9941 9941 9939 9939 9938 9938 9937 9937 9936 9936 9935 9935 9935 9935 9935 9936 9936 9936 9936 9937 9938 9939 9940 9941 9942 9943 9945 9946 9948 9950 9952 9954 9956 9959 9961 9964 9968 9971 9974 9978 9982 9986
10028 10026 10024 10022 10019 10018 10015 10013 10010 10008 10005 10003 10000 9998 9995 9993 9990 9988 9986 9983 9981 9979 9976 9974 9972 9969 9967 9965 9963 9961 9959 9958 9956 9954 9953 9951 9949 9948 9947 9946 9944 9943 9942 9941 9940 9939 9938 9938 9936 9936 9935 9934 9934 9934 9934 9933 9933 9933 9933 9933 9933 9933 9934 9934 9936 9936 9937 9938 9939 9940 9942 9943 9945 9947 9949 9951 9953 9956 9958 9961 9964 9968 9971 9974 9978 9982
10027 10024 10023 10020 10018 10016 10014 10011 10009 10007 10004 10002 9999 9997 9994 9992 9989 9988 9985 9983 9981 9978 9976 9974 9971 9969 9967 9964 9963 9961 9959 9957 9955 9953 9951 9949 9948 9947 9945 9944 9943 9942 9941 9939 9938 9938 9936 9936 9935 9934 9934 9933 9933 9932 9931 9931 9931 9931 9931 9931 9931 9931 9932 9932 9933 9934 9934 9936 9936 9938 9939 9941 9943 9944 9946 9948 9950 9953 9955 9958 9961 9964 9968 9971 9974 9978
10025 10023 10021 10019 10017 10015 10013 10010 10008 10006 10004 10001 9999 9996 9994 9992 9989 9987 9984 9982 9980 9978 9976 9973 9971 9969 9966 9964 9962 9960 9958 9956 9954 9952 9951 9949 9947 9946 9944 9943 9941 9940 9939 9938 9937 9936 9935 9934 9934 9933 9933 9932 9931 9930 9929 9929 9929 9929 9929 9929 9929 9929 9930 9930 9931 9932 9933 9933 9934 9936 9937 9938 9940 9941 9943 9945 9947 9949 9952 9955 9958 9961 9964 9968 9971 9974
10024 10021 10019 10018 10016 10014 10011 10009 10008 10005 10003 10001 9999 9996 9994 9991 9989 9987 9984 9982 9979 9978 9975 9973 9971 9969 9966 9964 9962 9960 9958 9956 9954 9952 9950 9948 9946 9945 9943 9942 9941 9939 9938 9937 9936 9935 9934 9933 9933 9932 9931 9931 9930 9929 9929 9928 9928 9928 9928 9928 9928 9928 9928 9929 9929 9930 9931 9932 9933 9934 9935 9936 9938 9939 9941 9943 9945 9947 9949 9953 9955 9958 9961 9964 9968 9971
10022 10020 10018 10016 10014 10013 10011 10009 10007 10005 10003 10001 9998 9996 9994 9991 9989 9987 9984 9982 9979 9977 9975 9973 9971 9968 9966 9964 9962 9959 9958 9956 9953 9951 9949 9948 9946 9944 9943 9941 9940 9939 9938 9937 9936 9934 9933 9933 9931 9931 9930 9929 9929 9928 9928 9927 9927 9927 9927 9927 9927 9927 9927 9928 9928 9929 9929 9930 9931 9932 9933 9934 9936 9938 9939 9941 9943 9945 9948 9950 9953 9956 9959 9962 9966 9969
10021 10019 10017 10016 10014 10012 10010 10008 10006 10004 10002 10000 9998 9996 9993 9991 9989 9987 9984 9982 9979 9977 9975 9973 9971 9968 9966 9964 9962 9959 9958 9955 9953 9951 9949 9948 9946 9944 9943 9941 9940 9939 9938 9936 9935 9934 9933 9932 9931 9930 9929 9928 9928 9928 9927 9926 9926 9926 9926 9926 9926 9926 9926 9926 9927 9928 9928 9929 9930 9931 9932 9933 9934 9936 9938 9939 9941 9944 9946 9948 9951 9954 9957 9961 9964 9968